Total_Precipitation_Accumulation
1.69 1.71 2.67 3.94 4.73 3.78 3.26 3.04 2.60 2.29 1.73 1.38 1.15 1.19 1.64 2.05 2.30 2.67 2.72 2.79 1.85 1.61 1.90 2.58 3.37 3.24 3.01 2.97 3.02 2.95 2.92 2.73 2.62 2.65 2.56 2.49 2.48 2.44 2.36 2.38 2.37 2.43 2.34 2.22 2.41 2.70 2.70 2.66 2.69
1.32 2.10 3.32 4.52 4.18 3.24 3.27 2.96 2.55 2.11 1.52 1.13 0.92 0.90 1.02 0.99 0.91 1.49 2.75 2.94 1.78 1.45 1.68 2.05 3.02 3.02 2.99 2.99 2.82 2.78 2.63 2.36 2.27 2.34 2.30 2.30 2.39 2.57 2.64 2.61 2.59 2.59 2.35 2.15 2.21 2.61 2.68 2.62 2.48
1.78 2.84 3.98 4.27 3.27 3.00 3.28 2.95 2.36 1.56 1.14 1.00 0.92 0.82 0.92 1.21 1.23 1.82 2.63 2.20 1.65 1.49 1.77 2.52 3.17 2.98 2.95 2.83 2.63 2.60 2.51 2.30 2.19 2.17 2.18 2.30 2.53 2.67 2.69 2.74 2.68 2.59 2.36 2.22 2.29 2.66 2.56 2.49 2.41
2.31 3.40 3.82 3.48 2.86 2.56 2.54 2.46 2.03 1.50 1.14 0.81 0.80 0.94 0.93 1.33 1.51 1.82 1.99 1.62 1.50 1.55 1.82 2.55 2.99 2.74 2.63 2.59 2.52 2.42 2.46 2.47 2.26 2.10 2.18 2.44 2.82 2.85 2.88 2.89 2.61 2.52 2.39 2.40 2.46 2.62 2.57 2.49 2.46
2.75 3.46 3.52 3.23 2.83 2.52 2.12 1.93 1.80 1.67 1.32 0.95 0.89 1.14 1.46 1.96 1.82 1.67 1.65 1.46 1.34 1.35 1.54 2.14 2.73 2.51 2.40 2.38 2.37 2.28 2.34 2.46 2.36 2.15 2.31 2.60 2.97 3.03 2.96 2.78 2.52 2.50 2.48 2.55 2.72 2.72 2.73 2.61 2.46
3.24 3.20 3.35 3.26 3.04 2.70 2.27 1.67 1.51 1.53 1.23 1.01 0.99 1.21 1.94 2.39 2.16 1.97 1.65 1.66 1.49 1.33 1.32 1.59 2.19 2.35 2.22 2.21 2.34 2.28 2.26 2.34 2.28 2.21 2.26 2.46 2.94 3.01 2.94 2.77 2.56 2.44 2.50 2.71 3.00 2.91 2.76 2.54 2.44
3.15 3.04 3.06 2.70 2.79 3.01 2.33 1.45 1.50 1.50 1.38 1.16 0.91 1.21 1.84 2.22 1.97 1.82 1.62 1.62 1.67 1.62 1.49 1.40 1.50 1.75 1.96 2.09 2.23 2.25 2.21 2.14 2.05 2.16 2.25 2.61 3.10 2.93 2.78 2.71 2.63 2.55 2.62 2.71 2.88 2.75 2.59 2.54 2.53
2.53 2.64 2.59 2.57 2.78 2.94 2.10 1.29 1.17 1.39 1.34 0.93 0.97 1.34 1.65 1.66 1.54 1.52 1.58 1.74 1.75 1.74 1.59 1.36 1.26 1.32 1.56 1.69 1.88 2.13 2.18 2.08 1.95 2.03 2.21 2.54 3.06 2.87 2.65 2.52 2.71 2.92 3.02 3.09 3.08 2.81 2.59 2.57 2.45
2.11 2.63 2.92 2.93 2.82 2.48 1.70 1.36 1.11 0.99 1.00 0.91 0.92 1.04 1.16 1.06 1.17 1.33 1.38 1.44 1.58 1.55 1.42 1.28 1.21 1.27 1.39 1.52 1.60 1.98 2.03 1.90 1.71 1.70 2.00 2.16 2.44 2.46 2.51 2.59 2.92 2.94 2.95 3.04 3.10 3.02 2.74 2.42 2.29
2.18 2.63 2.65 2.12 1.72 1.65 1.42 1.27 1.13 1.21 1.28 1.09 1.06 1.07 1.11 1.12 1.17 1.20 1.20 1.24 1.28 1.24 1.11 1.07 1.04 1.12 1.25 1.30 1.68 2.02 1.80 1.71 1.49 1.52 1.60 1.78 2.16 2.47 2.21 2.50 2.98 2.93 2.84 2.76 2.90 2.89 2.48 1.97 1.68
1.77 2.17 1.82 1.56 1.28 1.09 1.15 1.14 0.91 1.12 1.35 1.15 1.11 1.08 1.12 1.23 1.21 1.22 1.19 1.08 1.04 0.98 0.89 0.83 0.76 0.76 0.84 1.10 1.45 1.78 1.92 1.92 1.91 1.73 1.64 1.74 1.67 1.82 1.73 1.72 1.93 2.03 2.07 2.01 2.16 2.28 1.98 1.69 1.61
1.67 1.63 1.46 1.44 1.06 1.03 1.02 0.97 0.93 0.99 1.11 0.99 1.05 0.96 0.97 1.09 1.12 1.10 1.14 1.06 0.95 0.90 0.85 0.76 0.72 0.68 0.69 0.78 0.99 1.24 1.40 1.51 1.60 1.52 1.40 1.57 1.55 1.61 1.64 1.57 1.48 1.43 1.51 1.67 1.72 1.88 1.87 1.67 1.56
1.75 1.71 1.39 1.15 1.02 0.97 0.89 0.87 0.88 1.00 0.94 0.84 0.95 1.02 1.06 1.07 1.08 1.13 1.19 1.20 1.04 1.02 0.98 0.88 0.77 0.74 0.74 0.80 0.86 0.95 1.11 1.23 1.27 1.35 1.32 1.39 1.55 1.61 1.59 1.43 1.35 1.24 1.31 1.45 1.56 1.61 1.69 1.74 1.69
1.57 1.55 1.57 1.39 1.18 1.06 1.03 0.90 0.81 1.03 0.99 0.93 1.02 1.11 1.08 1.10 1.01 1.00 1.07 1.16 1.16 1.12 1.05 1.01 0.90 0.87 0.84 0.81 0.84 0.91 0.99 1.03 1.05 1.06 1.08 1.24 1.47 1.50 1.55 1.48 1.46 1.39 1.38 1.48 1.47 1.41 1.58 1.76 1.71
1.44 1.71 1.75 1.57 1.29 1.14 1.16 1.30 1.02 0.97 1.04 1.06 1.17 1.11 1.03 1.05 0.99 0.95 0.94 1.00 1.08 1.08 1.01 1.02 1.01 1.02 1.01 0.98 0.91 0.89 1.01 1.10 1.06 1.02 0.95 1.00 1.21 1.31 1.40 1.42 1.36 1.37 1.47 1.52 1.57 1.41 1.46 1.52 1.55
1.81 2.23 2.40 1.75 1.45 1.22 1.41 1.66 1.19 1.10 1.14 1.10 1.11 1.08 1.00 0.97 0.94 0.91 0.93 0.90 0.90 0.90 0.89 0.95 0.93 0.98 1.04 1.05 1.05 1.08 1.08 1.15 1.09 1.07 1.00 0.96 1.05 1.18 1.34 1.37 1.31 1.30 1.47 1.62 1.71 1.61 1.60 1.58 1.59
2.11 2.22 2.12 1.76 1.41 1.29 1.37 1.40 1.15 1.12 1.15 0.99 0.98 0.95 0.89 0.84 0.82 0.77 0.80 0.84 0.84 0.81 0.83 0.84 0.87 0.86 0.94 1.01 1.03 1.15 1.19 1.22 1.17 1.15 1.06 1.04 1.11 1.25 1.44 1.56 1.55 1.50 1.52 1.57 1.56 1.66 1.69 1.69 1.70
1.79 1.67 1.56 1.52 1.25 1.17 1.21 1.07 0.95 0.99 1.00 0.90 0.80 0.73 0.71 0.71 0.66 0.64 0.68 0.73 0.75 0.78 0.79 0.77 0.80 0.81 0.85 0.98 1.07 1.26 1.40 1.40 1.40 1.29 1.20 1.23 1.39 1.56 1.72 1.73 1.82 1.85 1.77 1.76 1.72 1.78 1.76 1.69 1.77
1.17 1.28 1.32 1.24 0.94 0.95 0.99 0.88 0.88 0.88 0.88 0.81 0.71 0.60 0.58 0.60 0.58 0.56 0.61 0.68 0.69 0.73 0.76 0.77 0.75 0.81 0.85 0.90 1.04 1.29 1.55 1.66 1.79 1.68 1.45 1.38 1.51 1.82 2.10 2.07 2.14 2.21 2.15 2.11 2.08 2.31 2.26 2.00 1.82
1.11 1.33 1.31 1.18 0.84 0.79 0.84 0.77 0.69 0.70 0.75 0.65 0.62 0.59 0.54 0.54 0.49 0.48 0.50 0.56 0.58 0.60 0.67 0.72 0.72 0.79 0.82 0.87 1.05 1.23 1.39 1.39 1.55 1.67 1.61 1.51 1.50 1.69 1.88 2.19 2.34 2.30 2.44 2.54 2.50 2.86 3.00 2.49 2.06
1.09 1.12 1.09 1.06 0.87 0.78 0.77 0.84 0.65 0.58 0.61 0.55 0.49 0.52 0.48 0.49 0.50 0.48 0.47 0.51 0.52 0.51 0.51 0.56 0.62 0.71 0.83 0.95 1.16 1.38 1.61 1.69 1.69 1.59 1.67 1.67 1.57 1.64 1.78 1.95 2.13 2.19 2.35 2.52 2.63 2.94 3.48 3.24 2.56
1.02 0.75 0.69 0.76 0.99 1.07 0.87 1.09 0.76 0.62 0.66 0.57 0.48 0.44 0.42 0.45 0.49 0.57 0.55 0.55 0.51 0.50 0.51 0.55 0.65 0.80 1.00 1.19 1.40 1.61 1.80 1.86 1.72 1.71 1.74 1.62 1.53 1.51 1.63 1.77 1.91 2.06 2.14 2.33 2.42 2.53 3.11 3.52 3.18
0.70 0.61 0.58 0.67 0.90 0.90 0.69 0.84 0.75 0.62 0.73 0.66 0.54 0.47 0.42 0.42 0.45 0.50 0.52 0.58 0.61 0.62 0.68 0.73 0.88 1.11 1.35 1.55 1.80 2.08 2.05 1.94 1.85 1.77 1.73 1.68 1.66 1.60 1.61 1.78 1.85 1.87 1.98 2.15 2.48 2.75 3.03 3.28 3.32
0.51 0.62 0.70 0.76 0.98 0.98 0.61 0.71 0.77 0.59 0.61 0.66 0.60 0.51 0.43 0.39 0.46 0.57 0.66 0.79 0.90 0.94 1.09 1.29 1.52 1.66 1.76 1.87 2.00 2.11 2.08 2.09 2.05 1.84 1.72 1.70 1.73 1.77 1.76 1.81 1.84 1.81 1.86 2.00 2.29 2.62 2.86 3.17 3.41
0.54 0.93 1.33 1.35 1.32 0.94 0.48 0.68 0.75 0.54 0.46 0.51 0.54 0.44 0.38 0.40 0.52 0.68 0.87 1.02 1.17 1.36 1.53 1.65 1.80 1.94 1.91 1.88 1.94 1.99 1.99 1.98 1.99 1.92 1.83 1.75 1.70 1.72 1.73 1.78 1.90 1.97 2.01 2.14 2.34 2.54 2.51 2.71 3.15
0.57 0.84 1.35 1.50 1.22 0.84 0.61 0.87 0.80 0.58 0.45 0.40 0.34 0.30 0.41 0.56 0.69 0.82 0.91 1.05 1.25 1.46 1.55 1.56 1.64 1.76 1.77 1.74 1.73 1.74 1.78 1.79 1.76 1.68 1.66 1.71 1.79 1.74 1.64 1.64 1.73 1.84 2.01 2.07 2.15 2.21 2.19 2.32 2.58
0.55 0.61 0.66 0.96 0.80 0.79 0.80 0.92 0.81 0.54 0.47 0.41 0.36 0.38 0.54 0.76 0.96 1.12 1.25 1.39 1.45 1.54 1.63 1.53 1.54 1.60 1.62 1.59 1.57 1.61 1.59 1.64 1.64 1.56 1.56 1.58 1.60 1.50 1.37 1.33 1.40 1.48 1.55 1.66 1.81 1.90 2.00 2.09 2.22
0.44 0.58 0.78 1.14 1.29 1.24 1.08 1.06 0.96 0.72 0.62 0.64 0.70 0.78 0.84 0.94 1.20 1.51 1.80 1.97 1.82 1.59 1.54 1.53 1.47 1.48 1.60 1.65 1.61 1.59 1.63 1.63 1.59 1.59 1.51 1.49 1.53 1.46 1.35 1.26 1.21 1.20 1.18 1.21 1.41 1.59 1.70 1.81 1.95
0.46 0.63 0.80 1.06 1.18 1.48 1.65 1.51 1.14 1.13 1.12 1.16 1.24 1.27 1.28 1.37 1.35 1.53 1.76 1.96 1.91 1.61 1.37 1.42 1.50 1.53 1.59 1.59 1.61 1.60 1.56 1.44 1.42 1.44 1.42 1.39 1.40 1.46 1.43 1.31 1.23 1.32 1.33 1.29 1.34 1.36 1.41 1.49 1.61
0.55 0.70 0.91 1.31 1.23 1.20 1.50 1.54 1.19 1.17 1.21 1.29 1.43 1.48 1.48 1.39 1.29 1.29 1.36 1.44 1.54 1.44 1.25 1.21 1.36 1.48 1.49 1.47 1.51 1.52 1.41 1.31 1.30 1.29 1.22 1.10 1.02 1.04 1.16 1.29 1.20 1.18 1.21 1.25 1.31 1.31 1.34 1.39 1.47